Location: Avully
(45.9633°N, 6.0228°E)
Time: 04:55:50
(UTC+00:00)

Cosmos 2360 Rocket - Pass Details

Date: 09 August 2024
Orbit: 834 x 843 km, 71.0° (Epoch: 16 September)

Event Time Altitude Azimuth Distance (km) Brightness Sun altitude
Exits shadow 23:28:56 24° 86° (E) 1,668 3.7 -28.5°
Drops below altitude 10° 23:32:31 10° 49° (NE) 2,468 5.1 -28.5°
Sets 23:35:19 0° 37° (NE) 3,406 6.1 -28.5°
